Regional Weather Roundup
Issued by NWS

Home | Current Version | Previous Version | Text Only | Print | Product List | Glossary Off
Versions: 1 2 3 4 5 6 7 8 9 10 11 12 13 14 15 16 17 18 19 20 21 22 23 24 25 26 27

000
ASUS45 KBOU 301007
RWRCO

WEATHER ROUNDUP FOR COLORADO
NATIONAL WEATHER SERVICE DENVER/BOULDER CO
400 AM MDT TUE AUG 30 2016

NOTE: "FAIR" INDICATES FEW OR NO CLOUDS BELOW 12000 FEET WITH NO
SIGNIFICANT WEATHER AND/OR OBSTRUCTIONS TO VISIBILITY.

COZ001>005-013-030-031-301100-
...NORTHWEST COLORADO...

CITY           SKY/WX    TMP DP  RH WIND       PRES   REMARKS
CRAIG          FAIR      56  36  47 E10       30.35S
HAYDEN         FAIR      52  36  54 E13       30.37F
MEEKER         FAIR      44  38  79 NE3       30.36S
MOUNT WERNER   NOT AVBL
STEAMBOAT SPGS FAIR      45  36  70 NW6       30.40F
WALDEN         FAIR      34  30  86 S3        30.51S
$$

COZ006>008-011-301100-
...WEST CENTRAL VALLEYS...

CITY           SKY/WX    TMP DP  RH WIND       PRES   REMARKS
GRAND JUNCTION FAIR      62  43  49 E12       30.26S
MONTROSE       FAIR      51  45  79 SE8       30.34F
EAGLE          FAIR      45  41  87 E5        30.45S
RIFLE          FAIR      53  43  68 CALM      30.33S
DELTA          NOT AVBL
NUCLA          FAIR     N/A N/A N/A E8        30.36S
$$

COZ017>023-064>068-301100-
...SOUTHWEST COLORADO...

CITY           SKY/WX    TMP DP  RH WIND       PRES   REMARKS
DURANGO        MOCLDY    50  43  77 NE3       30.39S
CORTEZ         FAIR      54  49  83 VRB7      30.32S
PAGOSA SPRINGS MOCLDY    50  40  69 CALM      30.44S
TELLURIDE      FAIR      47  38  71 SE7       30.53S
WOLF CREEK PAS FAIR      39  34  81 MISG      30.70F
$$

COZ009-010-012-014-032>034-037-058>063-301100-
...CENTRAL COLORADO...

CITY           SKY/WX    TMP DP  RH WIND       PRES   REMARKS
ASPEN          FAIR      42  38  85 SW8       30.45F
BUENA VISTA    FAIR      43  40  90 N5        30.51F
COPPER MTN     MOCLDY    45  32  61 S7        30.69S
BERTHOUD PASS  FAIR      34  23  64 E13G18    30.73S WCI  25
COTTONWOOD PAS FAIR      48  36  61 SW12      30.59S
GUNNISON       FAIR      41  36  81 CALM      30.51S
KREMMLING      FAIR      37  36  93 CALM      30.49S
LEADVILLE      FAIR      34  32  92 CALM      30.58S
MONARCH PASS   FAIR      36  34  93 E9        30.78S
SALIDA         FAIR      46  43  89 W3        30.57F
SUNLIGHT       FAIR      45  37  76 W7        30.63F
WILKERSON PASS CLOUDY    43  34  70 CALM      30.69S
$$

COZ069>075-301100-
...SAN LUIS VALLEY/SANGRE DE CRISTO MOUNTAINS...

CITY           SKY/WX    TMP DP  RH WIND       PRES   REMARKS
ALAMOSA        FAIR      41  39  93 CALM      30.45S
LA VETA PASS   CLOUDY    43  37  81 NE5       30.58F
SAGUACHE       FAIR      45  41  87 NW10      30.48S
$$

COZ035-036-038>040-301100-
...NORTHERN COLORADO FRONT RANGE...

CITY           SKY/WX    TMP DP  RH WIND       PRES   REMARKS
DENVER INTL AP MOCLDY    60  46  59 SW7       30.34S
DMNS CITY PARK   N/A     58  47  67 SE7       30.34S
AURORA         MOCLDY    58  47  68 S8        30.36S
FRONT RANGE AP NOT AVBL
ERIE MUNI ARPT FAIR      56  51  84 CALM      30.33S
BOULDER MUN AP FAIR      55  52  88 W5        30.34R
CENTENNIAL     CLOUDY    57  47  69 S5        30.37S
BROOMFIELD     FAIR      57  50  77 W3        30.36S
FORT COLLINS   FAIR      57  52  82 CALM      30.32S
LONGMONT       FAIR      59  54  83 CALM      30.35R
$$

COZ041-046-047-076>085-087-088-301100-
...PIKES PEAK/PALMER DIVIDE AND SOUTHERN FOOTHILLS...

CITY           SKY/WX    TMP DP  RH WIND       PRES   REMARKS
COLO. SPRINGS  FAIR      55  47  74 N6        30.40F
A. F. ACADEMY  MOCLDY    48  46  93 N8        30.41S
SCHRIEVER AFB  NOT AVBL
ELLICOTT       NOT AVBL
FALCON         CLOUDY    52  47  82 W8        30.43F
FORT CARSON    FAIR      55  49  81 NW7       30.37S
LIMON          FAIR      52  50  93 NW3       30.35F
MONUMENT HILL  CLOUDY    52  45  76 W7        30.44F
TRINIDAD       FAIR      55  50  83 W12       30.36S
$$

COZ042>045-048>051-090-091-301100-
...NORTHEAST COLORADO...

CITY           SKY/WX    TMP DP  RH WIND       PRES   REMARKS
GREELEY ARPT   FAIR      57  55  94 CALM      30.31F
AKRON          FAIR      59  51  75 W9        30.29F
BURLINGTON     FAIR      57  55  93 W7        30.29S FOG
WRAY           NOT AVBL
STERLING       FAIR      59  55  88 CALM      30.26S
HOLYOKE        FAIR      61  59  94 S3        30.27S
FORT MORGAN    FAIR      55  53  93 W3        30.30F
$$

COZ086-089-092>099-301100-
...SOUTHEAST COLORADO...

CITY           SKY/WX    TMP DP  RH WIND       PRES   REMARKS
PUEBLO         FAIR      61  53  75 W7        30.31F
LA JUNTA       FAIR      61  54  77 CALM      30.27S
LAMAR          FAIR      58  57  97 CALM      30.24S
SPRINGFIELD      N/A     61  57  87 CALM      30.27F
$$




USA.gov is the U.S. government's official web portal to all federal, state and local government web resources and services.